This is the latest recevied weather packets stored in our database for station/object N7IGG. If no packets are shown the sender has not sent any weather packets the latest 10 day(s).
| Time | Temp. | Humidity | Pressure | Rain* | Wind** | Luminosity | Snow |
|---|---|---|---|---|---|---|---|
| 1777910355 | 12.78° C | 88% | 1011.2 hPa | 0 mm | - | 42 W/m² | - |
| 1777910052 | 12.78° C | 89% | 1011 hPa | 0 mm | - | 91 W/m² | - |
| 1777909749 | 12.78° C | 89% | 1011 hPa | 0 mm | - | 57 W/m² | - |
| 1777909446 | 12.22° C | 89% | 1011.1 hPa | 0 mm | - | 78 W/m² | - |
| 1777909144 | 12.22° C | 89% | 1010.8 hPa | 0 mm | - | 43 W/m² | - |
| 1777908842 | 13.33° C | 90% | 1010.7 hPa | 0 mm | - | 42 W/m² | - |
| 1777908538 | 12.78° C | 90% | 1010.9 hPa | 0 mm | - | 38 W/m² | - |
| 1777908235 | 12.22° C | 90% | 1011 hPa | 0 mm | - | 37 W/m² | - |
| 1777907932 | 11.67° C | 90% | 1010.8 hPa | 0 mm | - | 37 W/m² | - |
| 1777907627 | 11.67° C | 90% | 1010.7 hPa | 0 mm | - | 33 W/m² | - |
| 1777907323 | 11.67° C | 90% | 1010.6 hPa | 0 mm | - | 32 W/m² | - |
| 1777907019 | 11.11° C | 90% | 1010.9 hPa | 0 mm | - | 28 W/m² | - |
| 1777906718 | 11.11° C | 90% | 1010.7 hPa | 0 mm | - | 28 W/m² | - |
| 1777906413 | 11.11° C | 90% | 1010.7 hPa | 0 mm | - | 28 W/m² | - |
| 1777906110 | 11.11° C | 89% | 1010.6 hPa | 0 mm | - | 29 W/m² | - |
| 1777905806 | 11.67° C | 89% | 1010.7 hPa | 0 mm | - | 28 W/m² | - |
| 1777905504 | 11.67° C | 89% | 1010.5 hPa | 0 mm | - | 27 W/m² | - |
| 1777905201 | 11.67° C | 89% | 1010.6 hPa | 0 mm | - | 24 W/m² | - |
| 1777904898 | 11.11° C | 89% | 1010.6 hPa | 0 mm | - | 23 W/m² | - |
| 1777904595 | 11.11° C | 89% | 1010.7 hPa | 0 mm | - | 22 W/m² | - |
| 1777904292 | 11.11° C | 89% | 1010.7 hPa | 0 mm | - | 22 W/m² | - |
| 1777903990 | 11.11° C | 89% | 1010.5 hPa | 0 mm | - | 22 W/m² | - |
| 1777903686 | 11.11° C | 89% | 1010.4 hPa | 0 mm | - | 21 W/m² | - |
| 1777903382 | 11.11° C | 88% | 1010.4 hPa | 0 mm | - | 22 W/m² | - |
| 1777903078 | 11.11° C | 88% | 1010.5 hPa | 0 mm | - | 22 W/m² | - |
* Rain latest hour (hover to see other rain measurements)
** Current wind speed in m/s (hover to see current wind gust speed)